contact:dominique.lefevre@mio.osupytheas.fr, maurice.libes@osupytheas.fr, didier.mallarino@osupytheas.fr
Project:EMSO http://www.emso-fr.org/EMSO-France
Depth: 2436.0 m
Title:EMSO Ligure Ouest : Data MII capteur MICROCAT
DateTime_Computer,Latitude,Longitude,Temperature,Conductivity,Pressure,DateTime_Instrument
DateTime_Computer,Latitude,Longitude,degC,S m-1,dbar,DateTime_Instrument
2020-11-07T00:02:14Z,42.805,6.029,13.2978,4.59993,2470.203,2020-11-07T02:03:10Z
2020-11-07T00:05:17Z,42.805,6.029,13.2975,4.59987,2470.194,2020-11-07T02:06:13Z
2020-11-07T00:08:20Z,42.805,6.029,13.2975,4.59986,2470.156,2020-11-07T02:09:16Z
2020-11-07T00:11:23Z,42.805,6.029,13.2976,4.59986,2470.194,2020-11-07T02:12:19Z
2020-11-07T00:14:26Z,42.805,6.029,13.2979,4.59990,2470.18,2020-11-07T02:15:22Z
2020-11-07T00:17:29Z,42.805,6.029,13.2977,4.59995,2470.203,2020-11-07T02:18:25Z
2020-11-07T00:20:32Z,42.805,6.029,13.2979,4.59995,2470.227,2020-11-07T02:21:28Z
2020-11-07T00:23:36Z,42.805,6.029,13.2976,4.60000,2470.194,2020-11-07T02:24:31Z
2020-11-07T00:26:39Z,42.805,6.029,13.2978,4.59996,2470.194,2020-11-07T02:27:35Z
2020-11-07T00:29:42Z,42.805,6.029,13.2976,4.59987,2470.217,2020-11-07T02:30:38Z
2020-11-07T00:32:45Z,42.805,6.029,13.2975,4.59987,2470.203,2020-11-07T02:33:41Z
2020-11-07T00:35:48Z,42.805,6.029,13.2977,4.59991,2470.171,2020-11-07T02:36:44Z
2020-11-07T00:38:51Z,42.805,6.029,13.2979,4.59995,2470.217,2020-11-07T02:39:47Z
2020-11-07T00:41:54Z,42.805,6.029,13.2977,4.59988,2470.194,2020-11-07T02:42:50Z
2020-11-07T00:44:57Z,42.805,6.029,13.2979,4.59989,2470.156,2020-11-07T02:45:53Z
2020-11-07T00:48:01Z,42.805,6.029,13.2979,4.60001,2470.18,2020-11-07T02:48:56Z
2020-11-07T00:51:04Z,42.805,6.029,13.2976,4.59992,2470.217,2020-11-07T02:52:00Z
2020-11-07T00:54:07Z,42.805,6.029,13.2979,4.59992,2470.217,2020-11-07T02:55:03Z
2020-11-07T00:57:10Z,42.805,6.029,13.2976,4.59991,2470.194,2020-11-07T02:58:06Z
2020-11-07T01:00:13Z,42.805,6.029,13.2976,4.59988,2470.203,2020-11-07T03:01:09Z
2020-11-07T01:03:16Z,42.805,6.029,13.2978,4.59989,2470.217,2020-11-07T03:04:12Z
2020-11-07T01:06:19Z,42.805,6.029,13.2977,4.59984,2470.18,2020-11-07T03:07:15Z
2020-11-07T01:09:22Z,42.805,6.029,13.2976,4.59987,2470.18,2020-11-07T03:10:18Z
2020-11-07T01:12:25Z,42.805,6.029,13.2978,4.59988,2470.156,2020-11-07T03:13:21Z
2020-11-07T01:15:29Z,42.805,6.029,13.2979,4.59990,2470.203,2020-11-07T03:16:24Z
2020-11-07T01:18:32Z,42.805,6.029,13.2980,4.59988,2470.194,2020-11-07T03:19:28Z
2020-11-07T01:21:35Z,42.805,6.029,13.2974,4.59988,2470.203,2020-11-07T03:22:31Z
2020-11-07T01:24:38Z,42.805,6.029,13.2979,4.59986,2470.156,2020-11-07T03:25:34Z
2020-11-07T01:27:41Z,42.805,6.029,13.2976,4.59988,2470.18,2020-11-07T03:28:37Z
2020-11-07T01:30:44Z,42.805,6.029,13.2976,4.59986,2470.156,2020-11-07T03:31:40Z
2020-11-07T01:33:47Z,42.805,6.029,13.2978,4.59989,2470.18,2020-11-07T03:34:43Z
2020-11-07T01:36:50Z,42.805,6.029,13.2979,4.59991,2470.171,2020-11-07T03:37:46Z
2020-11-07T01:39:54Z,42.805,6.029,13.2979,4.59988,2470.203,2020-11-07T03:40:49Z
2020-11-07T01:42:57Z,42.805,6.029,13.2979,4.59989,2470.203,2020-11-07T03:43:53Z
2020-11-07T01:46:00Z,42.805,6.029,13.2982,4.59989,2470.156,2020-11-07T03:46:56Z
2020-11-07T01:49:03Z,42.805,6.029,13.2976,4.59989,2470.133,2020-11-07T03:49:59Z
2020-11-07T01:52:06Z,42.805,6.029,13.2976,4.59985,2470.194,2020-11-07T03:53:02Z
2020-11-07T01:55:09Z,42.805,6.029,13.2975,4.59986,2470.18,2020-11-07T03:56:05Z
2020-11-07T01:58:12Z,42.805,6.029,13.2974,4.59985,2470.194,2020-11-07T03:59:08Z
2020-11-07T02:01:15Z,42.805,6.029,13.2979,4.59986,2470.18,2020-11-07T04:02:11Z
2020-11-07T02:04:18Z,42.805,6.029,13.2978,4.59984,2470.194,2020-11-07T04:05:14Z
2020-11-07T02:07:22Z,42.805,6.029,13.2980,4.59985,2470.171,2020-11-07T04:08:17Z
2020-11-07T02:10:25Z,42.805,6.029,13.2976,4.59984,2470.171,2020-11-07T04:11:21Z
2020-11-07T02:13:28Z,42.805,6.029,13.2976,4.59983,2470.133,2020-11-07T04:14:24Z
2020-11-07T02:16:31Z,42.805,6.029,13.2980,4.59982,2470.18,2020-11-07T04:17:27Z
2020-11-07T02:19:34Z,42.805,6.029,13.2979,4.59981,2470.156,2020-11-07T04:20:30Z
2020-11-07T02:22:37Z,42.805,6.029,13.2975,4.59983,2470.156,2020-11-07T04:23:33Z
2020-11-07T02:25:40Z,42.805,6.029,13.2978,4.59982,2470.194,2020-11-07T04:26:36Z
2020-11-07T02:28:43Z,42.805,6.029,13.2976,4.59980,2470.18,2020-11-07T04:29:39Z
2020-11-07T02:31:47Z,42.805,6.029,13.2980,4.59981,2470.156,2020-11-07T04:32:42Z
2020-11-07T02:34:50Z,42.805,6.029,13.2978,4.59983,2470.156,2020-11-07T04:35:45Z
2020-11-07T02:37:53Z,42.805,6.029,13.2976,4.59980,2470.171,2020-11-07T04:38:49Z
2020-11-07T02:40:56Z,42.805,6.029,13.2979,4.59982,2470.156,2020-11-07T04:41:52Z
2020-11-07T02:43:59Z,42.805,6.029,13.2976,4.59981,2470.156,2020-11-07T04:44:55Z
2020-11-07T02:47:02Z,42.805,6.029,13.2976,4.59981,2470.156,2020-11-07T04:47:58Z
2020-11-07T02:50:05Z,42.805,6.029,13.2977,4.59981,2470.171,2020-11-07T04:51:01Z
2020-11-07T02:53:08Z,42.805,6.029,13.2976,4.59980,2470.156,2020-11-07T04:54:04Z
2020-11-07T02:56:11Z,42.805,6.029,13.2975,4.59981,2470.171,2020-11-07T04:57:07Z
2020-11-07T02:59:15Z,42.805,6.029,13.2975,4.59981,2470.194,2020-11-07T05:00:10Z
2020-11-07T03:02:18Z,42.805,6.029,13.2976,4.59982,2470.18,2020-11-07T05:03:13Z
2020-11-07T03:05:21Z,42.805,6.029,13.2978,4.59981,2470.156,2020-11-07T05:06:17Z
2020-11-07T03:08:24Z,42.805,6.029,13.2976,4.59981,2470.171,2020-11-07T05:09:20Z
2020-11-07T03:11:27Z,42.805,6.029,13.2977,4.59981,2470.18,2020-11-07T05:12:23Z
2020-11-07T03:14:30Z,42.805,6.029,13.2974,4.59981,2470.194,2020-11-07T05:15:26Z
2020-11-07T03:17:33Z,42.805,6.029,13.2978,4.59981,2470.171,2020-11-07T05:18:29Z
2020-11-07T03:20:36Z,42.805,6.029,13.2978,4.59981,2470.18,2020-11-07T05:21:32Z
2020-11-07T03:23:39Z,42.805,6.029,13.2981,4.59982,2470.18,2020-11-07T05:24:35Z
2020-11-07T03:26:43Z,42.805,6.029,13.2978,4.59981,2470.194,2020-11-07T05:27:38Z
2020-11-07T03:29:46Z,42.805,6.029,13.2974,4.59980,2470.18,2020-11-07T05:30:42Z
2020-11-07T03:32:49Z,42.805,6.029,13.2976,4.59981,2470.171,2020-11-07T05:33:45Z
2020-11-07T03:35:52Z,42.805,6.029,13.2979,4.59983,2470.147,2020-11-07T05:36:48Z
2020-11-07T03:38:55Z,42.805,6.029,13.2978,4.59981,2470.156,2020-11-07T05:39:51Z
2020-11-07T03:41:58Z,42.805,6.029,13.2976,4.59979,2470.194,2020-11-07T05:42:54Z
2020-11-07T03:45:01Z,42.805,6.029,13.2976,4.59981,2470.18,2020-11-07T05:45:57Z
2020-11-07T03:48:04Z,42.805,6.029,13.2978,4.59979,2470.147,2020-11-07T05:49:00Z
2020-11-07T03:51:08Z,42.805,6.029,13.2977,4.59980,2470.18,2020-11-07T05:52:03Z
2020-11-07T03:54:11Z,42.805,6.029,13.2976,4.59980,2470.156,2020-11-07T05:55:07Z
2020-11-07T03:57:14Z,42.805,6.029,13.2977,4.59979,2470.18,2020-11-07T05:58:10Z
2020-11-07T04:00:17Z,42.805,6.029,13.2980,4.59979,2470.147,2020-11-07T06:01:13Z
2020-11-07T04:03:20Z,42.805,6.029,13.2980,4.59979,2470.133,2020-11-07T06:04:16Z
2020-11-07T04:06:23Z,42.805,6.029,13.2978,4.59981,2470.156,2020-11-07T06:07:19Z
2020-11-07T04:09:26Z,42.805,6.029,13.2976,4.59980,2470.203,2020-11-07T06:10:22Z
2020-11-07T04:12:29Z,42.805,6.029,13.2979,4.59981,2470.18,2020-11-07T06:13:25Z
2020-11-07T04:15:32Z,42.805,6.029,13.2976,4.59981,2470.156,2020-11-07T06:16:28Z
2020-11-07T04:18:36Z,42.805,6.029,13.2976,4.59981,2470.171,2020-11-07T06:19:31Z
2020-11-07T04:21:39Z,42.805,6.029,13.2976,4.59981,2470.171,2020-11-07T06:22:35Z
2020-11-07T04:24:42Z,42.805,6.029,13.2977,4.59980,2470.147,2020-11-07T06:25:38Z
2020-11-07T04:27:45Z,42.805,6.029,13.2978,4.59979,2470.156,2020-11-07T06:28:41Z
2020-11-07T04:30:48Z,42.805,6.029,13.2974,4.59981,2470.133,2020-11-07T06:31:44Z
2020-11-07T04:33:51Z,42.805,6.029,13.2975,4.59981,2470.156,2020-11-07T06:34:47Z
2020-11-07T04:36:54Z,42.805,6.029,13.2973,4.59980,2470.171,2020-11-07T06:37:50Z
2020-11-07T04:39:57Z,42.805,6.029,13.2978,4.59979,2470.156,2020-11-07T06:40:53Z
2020-11-07T04:43:01Z,42.805,6.029,13.2976,4.59980,2470.156,2020-11-07T06:43:56Z
2020-11-07T04:46:04Z,42.805,6.029,13.2978,4.59981,2470.171,2020-11-07T06:47:00Z
2020-11-07T04:49:07Z,42.805,6.029,13.2980,4.59981,2470.147,2020-11-07T06:50:03Z
2020-11-07T04:52:10Z,42.805,6.029,13.2976,4.59981,2470.156,2020-11-07T06:53:06Z
2020-11-07T04:55:13Z,42.805,6.029,13.2978,4.59981,2470.156,2020-11-07T06:56:09Z
2020-11-07T04:58:16Z,42.805,6.029,13.2976,4.59981,2470.156,2020-11-07T06:59:12Z
2020-11-07T05:01:19Z,42.805,6.029,13.2979,4.59981,2470.171,2020-11-07T07:02:15Z
2020-11-07T05:04:22Z,42.805,6.029,13.2976,4.59981,2470.156,2020-11-07T07:05:18Z
2020-11-07T05:07:25Z,42.805,6.029,13.2979,4.59981,2470.147,2020-11-07T07:08:21Z
2020-11-07T05:10:29Z,42.805,6.029,13.2979,4.59981,2470.171,2020-11-07T07:11:24Z
2020-11-07T05:13:32Z,42.805,6.029,13.2976,4.59981,2470.147,2020-11-07T07:14:28Z
2020-11-07T05:16:35Z,42.805,6.029,13.2982,4.59981,2470.156,2020-11-07T07:17:31Z
2020-11-07T05:19:38Z,42.805,6.029,13.2979,4.59981,2470.18,2020-11-07T07:20:34Z
2020-11-07T05:22:41Z,42.805,6.029,13.2974,4.59980,2470.171,2020-11-07T07:23:37Z
2020-11-07T05:25:44Z,42.805,6.029,13.2979,4.59981,2470.171,2020-11-07T07:26:40Z
2020-11-07T05:28:47Z,42.805,6.029,13.2979,4.59980,2470.194,2020-11-07T07:29:43Z
2020-11-07T05:31:50Z,42.805,6.029,13.2979,4.59980,2470.133,2020-11-07T07:32:46Z
2020-11-07T05:34:54Z,42.805,6.029,13.2979,4.59981,2470.194,2020-11-07T07:35:49Z
2020-11-07T05:37:57Z,42.805,6.029,13.2976,4.59981,2470.194,2020-11-07T07:38:53Z
2020-11-07T05:41:00Z,42.805,6.029,13.2981,4.59986,2470.156,2020-11-07T07:41:56Z
2020-11-07T05:44:03Z,42.805,6.029,13.2976,4.59981,2470.156,2020-11-07T07:44:59Z
2020-11-07T05:47:06Z,42.805,6.029,13.2977,4.59981,2470.171,2020-11-07T07:48:02Z
2020-11-07T05:50:09Z,42.805,6.029,13.2976,4.59981,2470.156,2020-11-07T07:51:05Z
2020-11-07T05:53:12Z,42.805,6.029,13.2980,4.59981,2470.194,2020-11-07T07:54:08Z
2020-11-07T05:56:15Z,42.805,6.029,13.2979,4.59979,2470.171,2020-11-07T07:57:11Z
2020-11-07T05:59:18Z,42.805,6.029,13.2976,4.59981,2470.194,2020-11-07T08:00:14Z
2020-11-07T06:02:22Z,42.805,6.029,13.2978,4.59980,2470.133,2020-11-07T08:03:17Z
2020-11-07T06:05:25Z,42.805,6.029,13.2979,4.59980,2470.156,2020-11-07T08:06:21Z
2020-11-07T06:08:28Z,42.805,6.029,13.2976,4.59979,2470.194,2020-11-07T08:09:24Z
2020-11-07T06:11:31Z,42.805,6.029,13.2979,4.59979,2470.18,2020-11-07T08:12:27Z
2020-11-07T06:14:34Z,42.805,6.029,13.2982,4.59979,2470.18,2020-11-07T08:15:30Z
2020-11-07T06:17:37Z,42.805,6.029,13.2977,4.59981,2470.18,2020-11-07T08:18:33Z
2020-11-07T06:20:40Z,42.805,6.029,13.2976,4.59980,2470.203,2020-11-07T08:21:36Z
2020-11-07T06:23:43Z,42.805,6.029,13.2976,4.59981,2470.133,2020-11-07T08:24:39Z
2020-11-07T06:26:46Z,42.805,6.029,13.2979,4.59981,2470.18,2020-11-07T08:27:42Z
2020-11-07T06:29:50Z,42.805,6.029,13.2982,4.59981,2470.156,2020-11-07T08:30:45Z
2020-11-07T06:32:53Z,42.805,6.029,13.2977,4.59979,2470.156,2020-11-07T08:33:49Z
2020-11-07T06:35:56Z,42.805,6.029,13.2977,4.59979,2470.203,2020-11-07T08:36:52Z
2020-11-07T06:38:59Z,42.805,6.029,13.2979,4.59980,2470.194,2020-11-07T08:39:55Z
2020-11-07T06:42:02Z,42.805,6.029,13.2976,4.59979,2470.156,2020-11-07T08:42:58Z
2020-11-07T06:45:05Z,42.805,6.029,13.2974,4.59981,2470.217,2020-11-07T08:46:01Z
2020-11-07T06:48:08Z,42.805,6.029,13.2976,4.59977,2470.217,2020-11-07T08:49:04Z
2020-11-07T06:51:11Z,42.805,6.029,13.2976,4.59978,2470.156,2020-11-07T08:52:07Z
2020-11-07T06:54:15Z,42.805,6.029,13.2977,4.59979,2470.18,2020-11-07T08:55:10Z
2020-11-07T06:57:18Z,42.805,6.029,13.2978,4.59981,2470.18,2020-11-07T08:58:14Z
2020-11-07T07:00:21Z,42.805,6.029,13.2980,4.59977,2470.203,2020-11-07T09:01:17Z
2020-11-07T07:03:24Z,42.805,6.029,13.2975,4.59978,2470.217,2020-11-07T09:04:20Z
2020-11-07T07:06:27Z,42.805,6.029,13.2971,4.59978,2470.203,2020-11-07T09:07:23Z
2020-11-07T07:09:30Z,42.805,6.029,13.2975,4.59979,2470.203,2020-11-07T09:10:26Z
2020-11-07T07:12:33Z,42.805,6.029,13.2975,4.59978,2470.203,2020-11-07T09:13:29Z
2020-11-07T07:15:36Z,42.805,6.029,13.2976,4.59980,2470.203,2020-11-07T09:16:32Z
2020-11-07T07:18:39Z,42.805,6.029,13.2978,4.59979,2470.203,2020-11-07T09:19:35Z
2020-11-07T07:21:43Z,42.805,6.029,13.2974,4.59978,2470.203,2020-11-07T09:22:38Z
2020-11-07T07:24:46Z,42.805,6.029,13.2973,4.59978,2470.227,2020-11-07T09:25:42Z
2020-11-07T07:27:49Z,42.805,6.029,13.2976,4.59978,2470.203,2020-11-07T09:28:45Z
2020-11-07T07:30:52Z,42.805,6.029,13.2977,4.59978,2470.227,2020-11-07T09:31:48Z
2020-11-07T07:33:55Z,42.805,6.029,13.2981,4.59979,2470.217,2020-11-07T09:34:51Z
2020-11-07T07:36:58Z,42.805,6.029,13.2975,4.59978,2470.203,2020-11-07T09:37:54Z
2020-11-07T07:40:01Z,42.805,6.029,13.2976,4.59979,2470.217,2020-11-07T09:40:57Z
2020-11-07T07:43:04Z,42.805,6.029,13.2977,4.59978,2470.24,2020-11-07T09:44:00Z
2020-11-07T07:46:08Z,42.805,6.029,13.2975,4.59978,2470.217,2020-11-07T09:47:03Z
2020-11-07T07:49:11Z,42.805,6.029,13.2978,4.59978,2470.24,2020-11-07T09:50:07Z
2020-11-07T07:52:14Z,42.805,6.029,13.2974,4.59978,2470.24,2020-11-07T09:53:10Z
2020-11-07T07:55:17Z,42.805,6.029,13.2976,4.59981,2470.227,2020-11-07T09:56:13Z
2020-11-07T07:58:20Z,42.805,6.029,13.2976,4.59979,2470.264,2020-11-07T09:59:16Z
2020-11-07T08:01:23Z,42.805,6.029,13.2980,4.59981,2470.25,2020-11-07T10:02:19Z
2020-11-07T08:04:26Z,42.805,6.029,13.2976,4.59979,2470.24,2020-11-07T10:05:22Z
2020-11-07T08:07:29Z,42.805,6.029,13.2978,4.59978,2470.287,2020-11-07T10:08:25Z
2020-11-07T08:10:32Z,42.805,6.029,13.2981,4.59979,2470.25,2020-11-07T10:11:28Z
2020-11-07T08:13:36Z,42.805,6.029,13.2979,4.59979,2470.25,2020-11-07T10:14:31Z
2020-11-07T08:16:39Z,42.805,6.029,13.2977,4.59981,2470.264,2020-11-07T10:17:35Z
2020-11-07T08:19:42Z,42.805,6.029,13.2981,4.59979,2470.287,2020-11-07T10:20:38Z
2020-11-07T08:22:45Z,42.805,6.029,13.2978,4.59979,2470.273,2020-11-07T10:23:41Z
2020-11-07T08:25:48Z,42.805,6.029,13.2976,4.59979,2470.297,2020-11-07T10:26:44Z
2020-11-07T08:28:51Z,42.805,6.029,13.2976,4.59978,2470.273,2020-11-07T10:29:47Z
2020-11-07T08:31:54Z,42.805,6.029,13.2976,4.59978,2470.287,2020-11-07T10:32:50Z
2020-11-07T08:34:57Z,42.805,6.029,13.2978,4.59982,2470.25,2020-11-07T10:35:53Z
2020-11-07T08:38:01Z,42.805,6.029,13.2982,4.59978,2470.287,2020-11-07T10:38:56Z
2020-11-07T08:41:04Z,42.805,6.029,13.2980,4.59981,2470.273,2020-11-07T10:42:00Z
2020-11-07T08:44:07Z,42.805,6.029,13.2979,4.59980,2470.273,2020-11-07T10:45:03Z
2020-11-07T08:47:10Z,42.805,6.029,13.2978,4.59981,2470.297,2020-11-07T10:48:06Z
2020-11-07T08:50:13Z,42.805,6.029,13.2982,4.59980,2470.273,2020-11-07T10:51:09Z
2020-11-07T08:53:16Z,42.805,6.029,13.2978,4.59979,2470.273,2020-11-07T10:54:12Z
2020-11-07T08:56:19Z,42.805,6.029,13.2976,4.59980,2470.297,2020-11-07T10:57:15Z
2020-11-07T08:59:22Z,42.805,6.029,13.2977,4.59980,2470.287,2020-11-07T11:00:18Z
2020-11-07T09:02:26Z,42.805,6.029,13.2980,4.59981,2470.25,2020-11-07T11:03:21Z
2020-11-07T09:05:29Z,42.805,6.029,13.2976,4.59980,2470.334,2020-11-07T11:06:25Z
2020-11-07T09:08:32Z,42.805,6.029,13.2976,4.59980,2470.273,2020-11-07T11:09:28Z
2020-11-07T09:11:35Z,42.805,6.029,13.2980,4.59981,2470.297,2020-11-07T11:12:31Z
2020-11-07T09:14:38Z,42.805,6.029,13.2980,4.59980,2470.31,2020-11-07T11:15:34Z
2020-11-07T09:17:41Z,42.805,6.029,13.2978,4.59981,2470.297,2020-11-07T11:18:37Z
2020-11-07T09:20:44Z,42.805,6.029,13.2979,4.59981,2470.297,2020-11-07T11:21:40Z
2020-11-07T09:23:47Z,42.805,6.029,13.2978,4.59981,2470.283,2020-11-07T11:24:43Z
2020-11-07T09:26:51Z,42.805,6.029,13.2976,4.59982,2470.32,2020-11-07T11:27:46Z
2020-11-07T09:29:54Z,42.805,6.029,13.2976,4.59981,2470.273,2020-11-07T11:30:50Z
2020-11-07T09:32:57Z,42.805,6.029,13.2976,4.59981,2470.32,2020-11-07T11:33:53Z
2020-11-07T09:36:00Z,42.805,6.029,13.2979,4.59983,2470.357,2020-11-07T11:36:56Z
2020-11-07T09:39:03Z,42.805,6.029,13.2979,4.59982,2470.297,2020-11-07T11:39:59Z
2020-11-07T09:42:06Z,42.805,6.029,13.2976,4.59981,2470.31,2020-11-07T11:43:02Z
2020-11-07T09:45:09Z,42.805,6.029,13.2979,4.59982,2470.32,2020-11-07T11:46:05Z
2020-11-07T09:48:12Z,42.805,6.029,13.2977,4.59981,2470.343,2020-11-07T11:49:08Z
2020-11-07T09:51:15Z,42.805,6.029,13.2976,4.59981,2470.31,2020-11-07T11:52:11Z
2020-11-07T09:54:19Z,42.805,6.029,13.2979,4.59982,2470.297,2020-11-07T11:55:14Z
2020-11-07T09:57:22Z,42.805,6.029,13.2976,4.59981,2470.334,2020-11-07T11:58:18Z
2020-11-07T10:00:25Z,42.805,6.029,13.2982,4.59981,2470.343,2020-11-07T12:01:21Z
2020-11-07T10:03:28Z,42.805,6.029,13.2981,4.59984,2470.343,2020-11-07T12:04:24Z
2020-11-07T10:06:31Z,42.805,6.029,13.2982,4.59982,2470.32,2020-11-07T12:07:27Z
2020-11-07T10:09:34Z,42.805,6.029,13.2980,4.59981,2470.32,2020-11-07T12:10:30Z
2020-11-07T10:12:37Z,42.805,6.029,13.2980,4.59981,2470.32,2020-11-07T12:13:33Z
2020-11-07T10:15:40Z,42.805,6.029,13.2976,4.59981,2470.343,2020-11-07T12:16:36Z
2020-11-07T10:18:44Z,42.805,6.029,13.2979,4.59982,2470.334,2020-11-07T12:19:39Z
2020-11-07T10:21:47Z,42.805,6.029,13.2977,4.59981,2470.343,2020-11-07T12:22:43Z
2020-11-07T10:24:50Z,42.805,6.029,13.2979,4.59981,2470.31,2020-11-07T12:25:46Z
2020-11-07T10:27:53Z,42.805,6.029,13.2979,4.59982,2470.343,2020-11-07T12:28:49Z
2020-11-07T10:30:56Z,42.805,6.029,13.2976,4.59984,2470.343,2020-11-07T12:31:52Z
2020-11-07T10:33:59Z,42.805,6.029,13.2978,4.59983,2470.32,2020-11-07T12:34:55Z
2020-11-07T10:37:02Z,42.805,6.029,13.2980,4.59981,2470.343,2020-11-07T12:37:58Z
2020-11-07T10:40:05Z,42.805,6.029,13.2977,4.59984,2470.32,2020-11-07T12:41:01Z
2020-11-07T10:43:09Z,42.805,6.029,13.2979,4.59981,2470.343,2020-11-07T12:44:04Z
2020-11-07T10:46:12Z,42.805,6.029,13.2979,4.59981,2470.32,2020-11-07T12:47:08Z
2020-11-07T10:49:15Z,42.805,6.029,13.2980,4.59980,2470.39,2020-11-07T12:50:11Z
2020-11-07T10:52:18Z,42.805,6.029,13.2977,4.59980,2470.343,2020-11-07T12:53:14Z
2020-11-07T10:55:21Z,42.805,6.029,13.2983,4.59981,2470.32,2020-11-07T12:56:17Z
2020-11-07T10:58:24Z,42.805,6.029,13.2980,4.59981,2470.357,2020-11-07T12:59:20Z
2020-11-07T11:01:27Z,42.805,6.029,13.2982,4.59981,2470.343,2020-11-07T13:02:23Z
2020-11-07T11:04:30Z,42.805,6.029,13.2978,4.59980,2470.32,2020-11-07T13:05:26Z
2020-11-07T11:07:34Z,42.805,6.029,13.2979,4.59979,2470.334,2020-11-07T13:08:29Z
2020-11-07T11:10:37Z,42.805,6.029,13.2979,4.59979,2470.343,2020-11-07T13:11:33Z
2020-11-07T11:13:40Z,42.805,6.029,13.2976,4.59980,2470.343,2020-11-07T13:14:36Z
2020-11-07T11:16:43Z,42.805,6.029,13.2978,4.59979,2470.32,2020-11-07T13:17:39Z
2020-11-07T11:19:46Z,42.805,6.029,13.2981,4.59981,2470.38,2020-11-07T13:20:42Z
2020-11-07T11:22:49Z,42.805,6.029,13.2976,4.59979,2470.31,2020-11-07T13:23:45Z
2020-11-07T11:25:52Z,42.805,6.029,13.2980,4.59980,2470.32,2020-11-07T13:26:48Z
2020-11-07T11:28:55Z,42.805,6.029,13.2977,4.59980,2470.357,2020-11-07T13:29:51Z
2020-11-07T11:31:59Z,42.805,6.029,13.2974,4.59980,2470.32,2020-11-07T13:32:54Z
2020-11-07T11:35:02Z,42.805,6.029,13.2979,4.59980,2470.32,2020-11-07T13:35:58Z
2020-11-07T11:38:05Z,42.805,6.029,13.2979,4.59980,2470.343,2020-11-07T13:39:01Z
2020-11-07T11:41:08Z,42.805,6.029,13.2976,4.59981,2470.32,2020-11-07T13:42:04Z
2020-11-07T11:44:11Z,42.805,6.029,13.2980,4.59980,2470.343,2020-11-07T13:45:07Z
2020-11-07T11:47:14Z,42.805,6.029,13.2977,4.59979,2470.343,2020-11-07T13:48:10Z
2020-11-07T11:50:17Z,42.805,6.029,13.2979,4.59981,2470.343,2020-11-07T13:51:13Z
2020-11-07T11:53:20Z,42.805,6.029,13.2977,4.59979,2470.343,2020-11-07T13:54:16Z
2020-11-07T11:56:24Z,42.805,6.029,13.2976,4.59980,2470.334,2020-11-07T13:57:19Z
2020-11-07T11:59:27Z,42.805,6.029,13.2980,4.59980,2470.343,2020-11-07T14:00:23Z
2020-11-07T12:02:30Z,42.805,6.029,13.2979,4.59979,2470.343,2020-11-07T14:03:26Z
2020-11-07T12:05:33Z,42.805,6.029,13.2978,4.59981,2470.32,2020-11-07T14:06:29Z
2020-11-07T12:08:36Z,42.805,6.029,13.2978,4.59980,2470.343,2020-11-07T14:09:32Z
2020-11-07T12:11:39Z,42.805,6.029,13.2975,4.59980,2470.334,2020-11-07T14:12:35Z
2020-11-07T12:14:42Z,42.805,6.029,13.2978,4.59979,2470.343,2020-11-07T14:15:38Z
2020-11-07T12:17:45Z,42.805,6.029,13.2976,4.59979,2470.297,2020-11-07T14:18:41Z
2020-11-07T12:20:48Z,42.805,6.029,13.2978,4.59979,2470.32,2020-11-07T14:21:44Z
2020-11-07T12:23:52Z,42.805,6.029,13.2975,4.59979,2470.33,2020-11-07T14:24:47Z
2020-11-07T12:26:55Z,42.805,6.029,13.2976,4.59979,2470.32,2020-11-07T14:27:51Z
2020-11-07T12:29:58Z,42.805,6.029,13.2974,4.59980,2470.343,2020-11-07T14:30:54Z
2020-11-07T12:33:01Z,42.805,6.029,13.2977,4.59982,2470.343,2020-11-07T14:33:57Z
2020-11-07T12:36:04Z,42.805,6.029,13.2976,4.59980,2470.32,2020-11-07T14:37:00Z
2020-11-07T12:39:07Z,42.805,6.029,13.2976,4.59979,2470.334,2020-11-07T14:40:03Z
2020-11-07T12:42:10Z,42.805,6.029,13.2976,4.59980,2470.297,2020-11-07T14:43:06Z
2020-11-07T12:45:13Z,42.805,6.029,13.2977,4.59979,2470.297,2020-11-07T14:46:09Z
2020-11-07T12:48:17Z,42.805,6.029,13.2981,4.59981,2470.334,2020-11-07T14:49:12Z
2020-11-07T12:51:20Z,42.805,6.029,13.2976,4.59980,2470.32,2020-11-07T14:52:16Z
2020-11-07T12:54:23Z,42.805,6.029,13.2977,4.59979,2470.32,2020-11-07T14:55:19Z
2020-11-07T12:57:26Z,42.805,6.029,13.2977,4.59979,2470.334,2020-11-07T14:58:22Z
2020-11-07T13:00:29Z,42.805,6.029,13.2977,4.59979,2470.32,2020-11-07T15:01:25Z
2020-11-07T13:03:32Z,42.805,6.029,13.2976,4.59980,2470.32,2020-11-07T15:04:28Z
2020-11-07T13:06:35Z,42.805,6.029,13.2977,4.59980,2470.32,2020-11-07T15:07:31Z
2020-11-07T13:09:38Z,42.805,6.029,13.2974,4.59978,2470.297,2020-11-07T15:10:34Z
2020-11-07T13:12:42Z,42.805,6.029,13.2976,4.59983,2470.334,2020-11-07T15:13:37Z
2020-11-07T13:15:45Z,42.805,6.029,13.2975,4.59979,2470.334,2020-11-07T15:16:41Z
2020-11-07T13:18:48Z,42.805,6.029,13.2976,4.59979,2470.297,2020-11-07T15:19:44Z
2020-11-07T13:21:51Z,42.805,6.029,13.2969,4.59979,2470.343,2020-11-07T15:22:47Z
2020-11-07T13:24:54Z,42.805,6.029,13.2977,4.59979,2470.32,2020-11-07T15:25:50Z
2020-11-07T13:27:57Z,42.805,6.029,13.2975,4.59979,2470.32,2020-11-07T15:28:53Z
2020-11-07T13:31:00Z,42.805,6.029,13.2976,4.59981,2470.343,2020-11-07T15:31:56Z
2020-11-07T13:34:03Z,42.805,6.029,13.2973,4.59980,2470.297,2020-11-07T15:34:59Z
2020-11-07T13:37:07Z,42.805,6.029,13.2975,4.59979,2470.334,2020-11-07T15:38:02Z
2020-11-07T13:40:10Z,42.805,6.029,13.2972,4.59984,2470.32,2020-11-07T15:41:06Z
2020-11-07T13:43:13Z,42.805,6.029,13.2979,4.59981,2470.297,2020-11-07T15:44:09Z
2020-11-07T13:46:16Z,42.805,6.029,13.2974,4.59981,2470.32,2020-11-07T15:47:12Z
2020-11-07T13:49:19Z,42.805,6.029,13.2975,4.59979,2470.32,2020-11-07T15:50:15Z
2020-11-07T13:52:22Z,42.805,6.029,13.2976,4.59978,2470.297,2020-11-07T15:53:18Z
2020-11-07T13:55:25Z,42.805,6.029,13.2980,4.59979,2470.297,2020-11-07T15:56:21Z
2020-11-07T13:58:28Z,42.805,6.029,13.2976,4.59981,2470.32,2020-11-07T15:59:24Z
2020-11-07T14:01:31Z,42.805,6.029,13.2974,4.59979,2470.31,2020-11-07T16:02:27Z
2020-11-07T14:04:35Z,42.805,6.029,13.2975,4.59979,2470.334,2020-11-07T16:05:31Z
2020-11-07T14:07:38Z,42.805,6.029,13.2978,4.59981,2470.297,2020-11-07T16:08:34Z
2020-11-07T14:10:41Z,42.805,6.029,13.2979,4.59979,2470.334,2020-11-07T16:11:37Z
2020-11-07T14:13:44Z,42.805,6.029,13.2973,4.59981,2470.297,2020-11-07T16:14:40Z
2020-11-07T14:16:47Z,42.805,6.029,13.2974,4.59980,2470.334,2020-11-07T16:17:43Z
2020-11-07T14:19:50Z,42.805,6.029,13.2980,4.59979,2470.31,2020-11-07T16:20:46Z
2020-11-07T14:22:53Z,42.805,6.029,13.2977,4.59979,2470.32,2020-11-07T16:23:49Z
2020-11-07T14:25:56Z,42.805,6.029,13.2975,4.59978,2470.273,2020-11-07T16:26:52Z
2020-11-07T14:29:00Z,42.805,6.029,13.2979,4.59979,2470.31,2020-11-07T16:29:56Z
2020-11-07T14:32:03Z,42.805,6.029,13.2974,4.59979,2470.297,2020-11-07T16:32:59Z
2020-11-07T14:35:06Z,42.805,6.029,13.2974,4.59979,2470.31,2020-11-07T16:36:02Z
2020-11-07T14:38:09Z,42.805,6.029,13.2976,4.59981,2470.273,2020-11-07T16:39:05Z
2020-11-07T14:41:12Z,42.805,6.029,13.2976,4.59980,2470.31,2020-11-07T16:42:08Z
2020-11-07T14:44:15Z,42.805,6.029,13.2975,4.59980,2470.297,2020-11-07T16:45:11Z
2020-11-07T14:47:18Z,42.805,6.029,13.2977,4.59979,2470.31,2020-11-07T16:48:14Z
2020-11-07T14:50:21Z,42.805,6.029,13.2978,4.59980,2470.297,2020-11-07T16:51:17Z
2020-11-07T14:53:25Z,42.805,6.029,13.2979,4.59983,2470.273,2020-11-07T16:54:20Z
2020-11-07T14:56:28Z,42.805,6.029,13.2977,4.59981,2470.297,2020-11-07T16:57:24Z
2020-11-07T14:59:31Z,42.805,6.029,13.2975,4.59979,2470.297,2020-11-07T17:00:27Z
2020-11-07T15:02:34Z,42.805,6.029,13.2979,4.59981,2470.273,2020-11-07T17:03:30Z